User: anonymous   Login
Location: Auckland
(36.8670°S, 174.7670°E)
Time: 03:28:38
(UTC+13:00)
Language:

Cosmos 1844 Rocket - Orbit

View from above orbital plane
View from above orbital plane
View from above satellite
View from above satellite

Ground track
Ground track

The orbit data is extracted from the following two-line orbital elements,

1 17974U 87041B   19320.87672397 +.00000043 +00000-0 +45175-4 0  9995
2 17974 071.0087 210.0764 0012161 132.0800 298.4566 14.17258458681547
Epoch (UTC): 16 November 2019 21:02:28
Eccentricity: 0.0012161
inclination: 71.0087°
perigee height: 826 km
apogee height: 843 km
right ascension of ascending node: 210.0764°
argument of perigee: 132.0800°
revolutions per day: 14.17258458
mean anomaly at epoch: 298.4566°
orbit number at epoch: 68154

The dashed part of the orbit path shows where the satellite is in the earth's shadow,  

DLR